Location: Gazon
(48.1318°N, 1.2708°W)
Time: 01:20:04
(UTC+00:00)

OPS 6432 - Pass Details

Date: 18 September 2020
Orbit: 369 x 1718 km, 63.3° (Epoch: 14 September)

Event Time Altitude Azimuth Distance (km) Brightness Sun altitude
Rises 18:56:06 0° 320° (NW) 2,255 8.9 -8.4°
Reaches altitude 10° 18:57:58 10° 322° (NW) 1,445 7.8 -8.7°
Maximum altitude 19:01:03 74° 48° (NE) 467 4.3 -9.2°
Drops below altitude 10° 19:04:53 10° 135° (SE) 1,788 6.9 -9.8°
Enters shadow 19:05:00 - 135° (SE) 1,839 7.0 -9.8°
